Flight Track Log - Related Links

Times and Time Zones

All times are in EDT time to prevent confusion due to time zone crossing. See the ASQ5025 flight status page for this flight to view local times or setup timezone preferences in your user account.


Time Position Orientation Groundspeed Altitude Reporting Facility
EDT Latitude Longitude Course Direction KTS MPH feet Rate Location/Type
Sun 09:54:58 AM 40.7500 -73.8000 27° Northeast 202 232 2,100  Level New York TRACON
Sun 09:55:53 AM 40.8000 -73.7500 37° Northeast 239 275 4,900 2,505 Climbing New York TRACON
Sun 09:58:00 AM 40.9161 -73.6817 24° Northeast 254 292 9,700 2,214 Climbing Boston Center
Sun 09:59:00 AM 41.0061 -73.6256 25° Northeast 270 311 11,800 1,750 Climbing Boston Center
Sun 10:00:00 AM 41.4638 -73.3186 27° Northeast  Level FlightAware Approximate
Sun 10:00:00 AM 41.1069 -73.5586 27° Northeast 327 376 13,200  Level Boston Center
Sun 10:01:00 AM 41.1908 -73.5019 27° Northeast 365 420 15,300 2,150 Climbing Boston Center
Sun 10:02:00 AM 41.2956 -73.4347 26° Northeast 371 427 17,500 1,800 Climbing Boston Center
Sun 10:03:00 AM 41.3711 -73.3861 26° Northeast 364 419 18,900 1,900 Climbing Boston Center
Sun 10:04:00 AM 41.4758 -73.3183 26° Northeast 369 425 21,300 2,050 Climbing Boston Center
Sun 10:05:00 AM 41.5578 -73.2142 44° Northeast 369 425 23,000 1,600 Climbing Boston Center
Sun 10:06:00 AM 41.6603 -73.1792 14° North 369 425 24,500 1,250 Climbing Boston Center
Sun 10:07:00 AM 41.7706 -73.1778 North 363 418 25,500 1,000 Climbing Boston Center
Sun 10:08:00 AM 41.8833 -73.1792 359° North 382 440 26,500 750 Climbing Boston Center
Sun 10:09:00 AM 41.9958 -73.1803 360° North 394 453 27,000 250 Climbing Boston Center
Sun 10:10:00 AM 42.1144 -73.1789 360° North 413 475 27,000  Level Boston Center
Sun 10:11:00 AM 42.2375 -73.1775 360° North 424 488 27,000  Level Boston Center
Sun 10:12:00 AM 42.3481 -73.1678 North 433 498 27,000  Level Boston Center
Sun 10:13:00 AM 42.4669 -73.1661 North 433 498 27,000  Level Boston Center
Sun 10:14:00 AM 42.5856 -73.1619 North 433 498 27,000  Level Boston Center
Sun 10:15:00 AM 42.7169 -73.1719 357° North 428 493 27,000  Level Boston Center
Sun 10:16:00 AM 42.8400 -73.1706 360° North 428 493 27,000  Level Boston Center
Sun 10:17:00 AM 42.9586 -73.1719 360° North 428 493 27,000 -50 Level Boston Center
Sun 10:18:00 AM 43.0794 -73.1706 360° North 428 493 26,900 -550 Descending Boston Center
Sun 10:19:00 AM 43.2006 -73.1692 360° North 423 487 25,900 -1,450 Descending Boston Center
Sun 10:20:00 AM 43.3256 -73.1678 360° North 433 498 24,000 -2,200 Descending Boston Center
Sun 10:21:00 AM 43.4400 -73.1664 North 427 491 21,500 -2,550 Descending Boston Center
Sun 10:22:00 AM 43.5569 -73.1619 North 421 484 18,900 -2,450 Descending Boston Center
Sun 10:23:00 AM 43.6714 -73.1633 359° North 415 478 16,600 -2,400 Descending Boston Center
Sun 10:24:00 AM 43.7672 -73.1644 360° North 395 455 14,100 -2,300 Descending Boston Center
Sun 10:25:00 AM 43.8861 -73.1631 360° North 384 442 12,000 -1,050 Descending Boston Center
Sun 10:26:00 AM 43.9883 -73.1614 North 379 436 12,000 -400 Level Boston Center
Sun 10:27:00 AM 44.0903 -73.1597 North 368 423 11,200 -750 Descending Boston Center
Sun 10:28:00 AM 44.1736 -73.1869 347° North 328 377 10,500 -1,200 Descending Boston Center
Sun 10:29:00 AM 44.2483 -73.2167 344° North 289 333 8,800 -1,700 Descending Boston Center
Sun 10:30:00 AM 44.3211 -73.2439 345° North 271 312 7,100 -1,250 Descending Boston Center
Sun 10:31:00 AM 44.3833 -73.2681 344° North 250 288 6,300 -1,550 Descending Boston Center
Sun 10:32:00 AM 44.4417 -73.2775 353° North 216 249 4,000 -2,200 Descending Boston Center
Sun 10:33:00 AM 44.5022 -73.2694 North 211 243 1,900 -1,400 Descending Boston Center
Sun 10:34:00 AM 44.5108 -73.2172 77° East 126 145 1,200 -650 Descending Boston Center
Sun 10:35:00 AM 44.4861 -73.1761 130° Southeast 98 113 600 -450 Descending Boston Center
Sun 10:36:00 AM 44.4694 -73.1497 132° Southeast 98 113 300 -150 Descending Boston Center
Sun 10:37:00 AM 44.4636 -73.1178 104° East 98 113 300 5,350 Level Boston Center
Sun 10:38:00 AM 44.4533 -73.0797 111° Southeast 98 113 11,000 10,700 Climbing Boston Center

Login

Don't have an account? Register now (free) for customized features, flight alerts, and more!